Location: Newark
(44.3248°N, 23.7839°E)
Time: 04:29:31
(UTC+00:00)

FO-29 - Pass Details

Date: 25 April 2024
Orbit: 801 x 1320 km, 98.6° (Epoch: 28 May)

Event Time Altitude Azimuth Distance (km) Brightness Sun altitude
Rises 22:34:21 0° 27° (NNE) 4,247 13.7 -32.0°
Reaches altitude 10° 22:38:10 10° 45° (NE) 3,321 12.8 -32.0°
Maximum altitude 22:43:12 18° 86° (E) 2,760 11.9 -31.9°
Enters shadow 22:45:45 16° 109° (ESE) 2,920 11.8 -31.8°
